GW3840 Weather Reports


time (UTC)temp
C
wind
direction
speed
KPH
gust
KPH
rain 1hr
cm
rain 24hr
cm
rain mn
cm
humidity
%
barometer
mb
20260902113119 17 186 0.0 0.0 0.00 0.00 0.00 96 1015.6
20260902112609 17 186 0.0 0.0 0.00 0.00 0.00 96 1015.3
20260902112106 17 172 0.0 0.0 0.00 0.00 0.00 96 1015.4
20260902111602 17 169 0.0 0.0 0.00 0.00 0.00 96 1015.5
20260902111057 16 158 0.0 0.0 0.00 0.00 0.00 96 1015.3
20260902110553 16 157 0.0 0.0 0.00 0.00 0.00 96 1015.2
20260902110049 17 189 0.0 0.0 0.00 0.00 0.00 96 1015.2
20260902105543 17 191 0.0 0.0 0.00 0.00 0.00 95 1015.1
20260902105043 17 203 0.0 0.0 0.00 0.00 0.00 95 1015.1
20260902104538 17 204 0.0 0.0 0.00 0.00 0.00 95 1015.2
20260902104033 17 204 0.0 0.0 0.00 0.00 0.00 94 1015.1
20260902103529 17 204 0.0 0.0 0.00 0.00 0.00 94 1015.2
20260902103024 17 205 0.0 0.0 0.00 0.00 0.00 93 1015.4
20260902102521 17 167 0.0 0.0 0.00 0.00 0.00 93 1015.4
20260902102017 18 185 0.0 0.0 0.00 0.00 0.00 93 1015.4
20260902101512 18 141 0.0 0.0 0.00 0.00 0.00 93 1015.3
20260902101010 18 220 0.0 0.0 0.00 0.00 0.00 93 1015.6
20260902100506 18 241 0.0 0.0 0.00 0.00 0.00 91 1015.6
20260902100000 18 187 0.0 0.0 0.00 0.00 0.00 91 1015.5
20260902095500 18 133 0.0 1.6 0.00 0.00 0.00 91 1015.5
20260902094959 18 172 0.0 0.0 0.00 0.00 0.00 92 1015.7
20260902094455 18 136 1.6 1.6 0.00 0.00 0.00 92 1015.7
20260902093955 18 181 0.0 0.0 0.00 0.00 0.00 93 1015.7
20260902093445 18 223 0.0 0.0 0.00 0.00 0.00 93 1015.8
20260902092944 17 201 0.0 0.0 0.00 0.00 0.00 93 1015.6
20260902092440 18 201 0.0 0.0 0.00 0.00 0.00 92 1015.7
20260902091940 18 184 0.0 0.0 0.00 0.00 0.00 91 1015.5
20260902091435 18 134 0.0 0.0 0.00 0.00 0.00 91 1015.5
20260902090932 18 184 0.0 0.0 0.00 0.00 0.00 89 1015.6
20260902090432 19 184 0.0 0.0 0.00 0.00 0.00 88 1015.7
20260902085930 19 65 1.6 1.6 0.00 0.00 0.00 87 1015.6
20260902085426 19 121 3.2 3.2 0.00 0.00 0.00 87 1015.6
20260902084921 19 136 1.6 1.6 0.00 0.00 0.00 87 1015.8
20260902084418 19 165 1.6 3.2 0.00 0.00 0.00 87 1015.6
20260902083913 19 193 0.0 0.0 0.00 0.00 0.00 89 1015.5
20260902083413 19 188 0.0 0.0 0.00 0.00 0.00 89 1015.5
20260902082908 19 188 0.0 0.0 0.00 0.00 0.00 89 1015.7
20260902082403 19 199 0.0 0.0 0.00 0.00 0.00 88 1015.4
20260902081900 18 174 0.0 0.0 0.00 0.00 0.00 90 1015.3
20260902081355 18 190 0.0 0.0 0.00 0.00 0.00 90 1015.1
20260902080850 18 192 0.0 0.0 0.00 0.00 0.00 89 1015.1
20260902080347 19 193 0.0 0.0 0.00 0.00 0.00 88 1015.1
20260902075846 19 189 0.0 0.0 0.00 0.00 0.00 87 1014.9
20260902075343 19 178 0.0 0.0 0.00 0.00 0.00 86 1014.5
20260902074843 20 178 0.0 0.0 0.00 0.00 0.00 85 1014.5
20260902074338 20 177 0.0 0.0 0.00 0.00 0.00 83 1014.5
20260902073833 21 154 0.0 0.0 0.00 0.00 0.00 81 1014.2
20260902073330 21 95 1.6 3.2 0.00 0.00 0.00 80 1014.3
20260902072825 21 20 1.6 3.2 0.00 0.00 0.00 80 1014.1
20260902072320 20 44 3.2 3.2 0.00 0.00 0.00 81 1014.3
20260902071817 20 189 0.0 0.0 0.00 0.00 0.00 81 1014.2
20260902071312 20 345 0.0 1.6 0.00 0.00 0.00 81 1014.1
20260902070808 20 330 0.0 1.6 0.00 0.00 0.00 82 1014.3
20260902070308 20 164 0.0 0.0 0.00 0.00 0.00 83 1014.1
20260902065807 20 143 0.0 0.0 0.00 0.00 0.00 82 1014.3
20260902065302 21 143 0.0 0.0 0.00 0.00 0.00 82 1014.3
20260902064757 20 179 0.0 1.6 0.00 0.00 0.00 81 1014.5
20260902064253 20 184 0.0 1.6 0.00 0.00 0.00 83 1014.5
20260902063749 21 152 0.0 0.0 0.00 0.00 0.00 84 1014.4
20260902063243 21 50 0.0 1.6 0.00 0.00 0.00 84 1014.6
20260902062743 21 47 1.6 3.2 0.00 0.00 0.00 85 1014.7
20260902062238 21 21 4.8 6.4 0.00 0.00 0.00 84 1014.9
20260902061737 20 281 1.6 3.2 0.00 0.00 0.00 86 1014.9
20260902061232 21 92 1.6 3.2 0.00 0.00 0.00 86 1014.9
20260902060730 21 96 1.6 3.2 0.00 0.00 0.00 86 1014.5
20260902060225 21 11 3.2 3.2 0.00 0.00 0.00 85 1014.7
20260902055720 21 56 1.6 3.2 0.00 0.00 0.00 85 1014.5
20260902055216 21 75 1.6 3.2 0.00 0.00 0.00 85 1014.6
20260902054711 21 3 0.0 3.2 0.00 0.00 0.00 87 1015.0
20260902054207 21 198 0.0 0.0 0.00 0.00 0.00 88 1015.1
20260902053702 21 276 1.6 3.2 0.00 0.00 0.00 88 1015.3
20260902053202 20 338 1.6 3.2 0.00 0.00 0.00 91 1015.4
20260902052701 19 190 0.0 0.0 0.00 0.00 0.00 91 1015.5
20260902052157 19 177 0.0 0.0 0.00 0.00 0.00 90 1015.5
20260902051656 19 163 0.0 0.0 0.00 0.00 0.00 90 1015.4
20260902051151 19 163 0.0 0.0 0.00 0.00 0.00 90 1015.5
20260902050651 19 160 0.0 0.0 0.00 0.00 0.00 89 1015.5
20260902050146 20 160 0.0 0.0 0.00 0.00 0.00 89 1015.5
20260902045641 20 159 0.0 0.0 0.00 0.00 0.00 89 1015.6
20260902045137 20 170 0.0 0.0 0.00 0.00 0.00 89 1015.7
20260902044632 20 154 0.0 0.0 0.00 0.00 0.00 88 1015.8
20260902044128 20 152 0.0 0.0 0.00 0.00 0.00 88 1016.0
20260902043623 20 143 0.0 0.0 0.00 0.00 0.00 88 1015.9
20260902043118 20 185 0.0 0.0 0.00 0.00 0.00 88 1015.9
20260902042617 20 186 0.0 0.0 0.00 0.00 0.00 87 1015.9
20260902042113 20 186 0.0 0.0 0.00 0.00 0.00 87 1016.0
20260902041612 20 186 0.0 0.0 0.00 0.00 0.00 87 1016.0
20260902041108 20 183 0.0 0.0 0.00 0.00 0.00 86 1015.8
20260902040607 20 225 0.0 0.0 0.00 0.00 0.00 86 1016.1
20260902035600 20 163 0.0 0.0 0.00 0.00 0.00 86 1015.9
20260902035056 20 190 0.0 0.0 0.00 0.00 0.00 86 1016.1
20260902034555 20 186 0.0 0.0 0.00 0.00 0.00 85 1016.1
20260902034054 20 181 0.0 0.0 0.00 0.00 0.00 85 1015.9
20260902033554 20 181 0.0 0.0 0.00 0.00 0.00 84 1016.0
20260902033049 20 181 0.0 0.0 0.00 0.00 0.00 84 1016.0
20260902032548 20 180 0.0 0.0 0.00 0.00 0.00 83 1016.0
20260902032043 20 171 0.0 0.0 0.00 0.00 0.00 82 1015.9
20260902031537 20 168 0.0 0.0 0.00 0.00 0.00 82 1016.1
20260902031034 21 162 0.0 0.0 0.00 0.00 0.00 82 1015.9
20260902030534 21 217 0.0 0.0 0.00 0.00 0.00 81 1016.1
20260902030034 21 216 0.0 0.0 0.00 0.00 0.00 80 1016.1
20260902025528 21 216 0.0 0.0 0.00 0.00 0.00 80 1016.1
20260902025024 21 226 0.0 0.0 0.00 0.00 0.00 81 1016.0
20260902024519 20 190 0.0 0.0 0.00 0.00 0.00 80 1016.0
20260902024019 21 189 0.0 0.0 0.00 0.00 0.00 81 1015.9
20260902023510 21 189 0.0 0.0 0.00 0.00 0.00 80 1015.9
20260902023009 21 185 0.0 0.0 0.00 0.00 0.00 80 1015.7
20260902022504 21 139 0.0 0.0 0.00 0.00 0.00 80 1015.6
20260902022000 21 199 0.0 0.0 0.00 0.00 0.00 80 1015.7
20260902021455 21 200 0.0 0.0 0.00 0.00 0.00 79 1015.7
20260902020950 21 200 0.0 0.0 0.00 0.00 0.00 79 1015.5
20260902020446 21 200 0.0 0.0 0.00 0.00 0.00 78 1015.6
20260902015942 21 200 0.0 0.0 0.00 0.00 0.00 77 1015.6
20260902015437 21 200 0.0 0.0 0.00 0.00 0.00 77 1015.5
20260902014932 21 227 0.0 0.0 0.00 0.00 0.00 75 1015.5
20260902014429 21 200 0.0 0.0 0.00 0.00 0.00 80 1015.6
20260902013928 21 199 0.0 0.0 0.00 0.00 0.00 80 1015.7
20260902013424 22 199 0.0 0.0 0.00 0.00 0.00 79 1015.6
20260902012919 22 192 0.0 0.0 0.00 0.00 0.00 79 1015.7
20260902012414 22 192 0.0 0.0 0.00 0.00 0.00 78 1015.7
20260902011909 22 191 0.0 0.0 0.00 0.00 0.00 77 1015.6
20260902011404 22 172 0.0 0.0 0.00 0.00 0.00 76 1015.5
20260902010859 22 143 0.0 0.0 0.00 0.00 0.00 76 1015.5
20260902010353 22 212 0.0 0.0 0.00 0.00 0.00 75 1015.6
20260902005852 22 213 0.0 0.0 0.00 0.00 0.00 73 1015.5
20260902005346 22 211 0.0 0.0 0.00 0.00 0.00 73 1015.3
20260902004842 22 211 0.0 0.0 0.00 0.00 0.00 74 1015.2
20260902004336 22 208 0.0 0.0 0.00 0.00 0.00 72 1015.1
20260902003832 22 207 0.0 0.0 0.00 0.00 0.00 70 1015.1
20260902003327 22 207 0.0 0.0 0.00 0.00 0.00 71 1015.1
20260902002822 22 207 0.0 0.0 0.00 0.00 0.00 71 1015.0
20260902002321 23 209 0.0 0.0 0.00 0.00 0.00 71 1015.2
20260902001817 23 190 0.0 0.0 0.00 0.00 0.00 69 1015.2
20260902001312 23 190 0.0 0.0 0.00 0.00 0.00 68 1015.2
20260902000807 23 171 0.0 1.6 0.00 0.00 0.00 67 1015.2
20260902000307 23 167 0.0 0.0 0.00 0.00 0.00 65 1015.0
20260901235802 24 188 0.0 0.0 0.00 0.00 0.00 64 1015.5
20260901235257 24 238 0.0 1.6 0.00 0.00 0.00 63 1015.7
20260901234756 24 229 0.0 1.6 0.00 0.00 0.00 63 1015.6
20260901234246 24 236 0.0 1.6 0.00 0.00 0.00 62 1015.6
20260901233740 25 224 1.6 3.2 0.00 0.00 0.00 61 1015.7
20260901233237 25 227 0.0 0.0 0.00 0.00 0.00 61 1015.6
20260901232736 25 221 1.6 1.6 0.00 0.00 0.00 60 1015.5
20260901232232 25 318 1.6 1.6 0.00 0.00 0.00 59 1015.7
20260901231728 25 224 0.0 1.6 0.00 0.00 0.00 58 1015.7
20260901231224 25 233 1.6 3.2 0.00 0.00 0.00 58 1015.9
20260901230719 25 234 1.6 3.2 0.00 0.00 0.00 57 1015.8
20260901230213 25 241 3.2 3.2 0.00 0.00 0.00 56 1016.0
20260901225708 25 276 3.2 3.2 0.00 0.00 0.00 55 1016.0
20260901225203 25 269 3.2 4.8 0.00 0.00 0.00 54 1016.1
20260901224659 25 291 3.2 3.2 0.00 0.00 0.00 53 1016.1
20260901224155 25 264 3.2 3.2 0.00 0.00 0.00 52 1015.7
20260901223651 26 245 4.8 6.4 0.00 0.00 0.00 51 1016.1
20260901223146 26 263 3.2 4.8 0.00 0.00 0.00 51 1016.3
20260901222642 26 39 3.2 4.8 0.00 0.00 0.00 50 1016.2
20260901222138 26 303 3.2 4.8 0.00 0.00 0.00 51 1016.2
20260901221634 26 304 6.4 9.7 0.00 0.00 0.00 49 1016.4
20260901221129 26 283 3.2 4.8 0.00 0.00 0.00 50 1016.2
20260901220628 26 258 3.2 9.7 0.00 0.00 0.00 48 1016.2
20260901220127 26 297 4.8 6.4 0.00 0.00 0.00 48 1016.1
20260901215625 26 260 3.2 6.4 0.00 0.00 0.00 49 1016.2
20260901215120 26 246 1.6 9.7 0.00 0.00 0.00 48 1016.1
20260901214618 26 341 3.2 4.8 0.00 0.00 0.00 48 1016.0
20260901214112 26 251 3.2 4.8 0.00 0.00 0.00 47 1016.0
20260901213607 26 297 3.2 4.8 0.00 0.00 0.00 47 1016.2
20260901213101 26 254 3.2 6.4 0.00 0.00 0.00 46 1015.8
20260901212555 27 240 3.2 6.4 0.00 0.00 0.00 46 1015.8
20260901212052 26 282 6.4 11.3 0.00 0.00 0.00 46 1016.0
20260901211547 26 257 4.8 9.7 0.00 0.00 0.00 46 1016.2
20260901211044 26 233 4.8 6.4 0.00 0.00 0.00 47 1016.3
20260901210538 27 264 6.4 6.4 0.00 0.00 0.00 47 1016.1
20260901210035 27 255 3.2 6.4 0.00 0.00 0.00 47 1016.1
20260901205529 27 317 3.2 11.3 0.00 0.00 0.00 45 1016.1
20260901205024 27 327 4.8 6.4 0.00 0.00 0.00 46 1015.9
20260901204520 28 343 8.0 11.3 0.00 0.00 0.00 42 1016.0
20260901204015 28 280 3.2 9.7 0.00 0.00 0.00 43 1016.1
20260901203510 27 238 4.8 6.4 0.00 0.00 0.00 43 1016.0
20260901203004 27 325 3.2 3.2 0.00 0.00 0.00 47 1015.9
20260901202459 27 325 3.2 9.7 0.00 0.00 0.00 48 1016.0
20260901201955 27 352 6.4 9.7 0.00 0.00 0.00 47 1015.9
20260901201449 28 14 8.0 11.3 0.00 0.00 0.00 46 1015.9
20260901200943 28 346 1.6 4.8 0.00 0.00 0.00 49 1015.9
20260901200433 27 308 3.2 9.7 0.00 0.00 0.00 48 1016.0
20260901195932 28 21 0.0 4.8 0.00 0.00 0.00 48 1016.1
20260901195431 27 318 8.0 11.3 0.00 0.00 0.00 48 1015.9
20260901194926 27 4 6.4 6.4 0.00 0.00 0.00 48 1016.1
20260901194421 27 347 6.4 9.7 0.00 0.00 0.00 50 1016.1
20260901193917 27 337 4.8 9.7 0.00 0.00 0.00 48 1016.2
20260901193415 27 346 3.2 4.8 0.00 0.00 0.00 51 1016.3
20260901192910 27 276 3.2 12.9 0.00 0.00 0.00 47 1016.4
20260901192406 27 229 3.2 9.7 0.00 0.00 0.00 46 1016.3
20260901191902 27 353 3.2 4.8 0.00 0.00 0.00 49 1016.2
20260901191357 27 358 6.4 9.7 0.00 0.00 0.00 50 1016.2
20260901190853 27 311 6.4 9.7 0.00 0.00 0.00 50 1016.4
20260901190352 27 63 4.8 6.4 0.00 0.00 0.00 49 1016.3
20260901185851 27 337 3.2 4.8 0.00 0.00 0.00 49 1016.3
20260901185344 27 247 3.2 11.3 0.00 0.00 0.00 47 1016.4
20260901184841 27 306 3.2 6.4 0.00 0.00 0.00 51 1016.5
20260901184335 26 255 3.2 4.8 0.00 0.00 0.00 52 1016.4
20260901183831 26 289 6.4 9.7 0.00 0.00 0.00 52 1016.1
20260901183330 25 325 4.8 6.4 0.00 0.00 0.00 53 1016.4
20260901182826 26 280 3.2 9.7 0.00 0.00 0.00 53 1016.3
20260901182326 26 22 1.6 4.8 0.00 0.00 0.00 55 1016.5
20260901181821 26 294 3.2 4.8 0.00 0.00 0.00 53 1016.6
20260901181315 26 283 3.2 3.2 0.00 0.00 0.00 52 1016.5
20260901180809 26 313 6.4 6.4 0.00 0.00 0.00 55 1016.6
20260901180308 26 313 4.8 11.3 0.00 0.00 0.00 55 1016.6
20260901175807 26 21 4.8 6.4 0.00 0.00 0.00 54 1016.7
20260901175305 26 42 4.8 4.8 0.00 0.00 0.00 54 1016.8
20260901174757 26 245 1.6 6.4 0.00 0.00 0.00 53 1017.0
20260901174253 26 275 3.2 4.8 0.00 0.00 0.00 53 1017.4
20260901173748 26 327 9.7 11.3 0.00 0.00 0.00 52 1017.0
20260901173243 25 348 4.8 4.8 0.00 0.00 0.00 55 1016.9
20260901172740 26 260 1.6 4.8 0.00 0.00 0.00 54 1017.2
20260901172238 26 306 3.2 4.8 0.00 0.00 0.00 55 1017.2
20260901171737 26 245 4.8 6.4 0.00 0.00 0.00 53 1017.1
20260901171236 26 217 1.6 4.8 0.00 0.00 0.00 53 1017.4
20260901170735 25 32 1.6 3.2 0.00 0.00 0.00 55 1017.1
20260901170230 26 323 3.2 4.8 0.00 0.00 0.00 56 1017.2
20260901165729 25 265 1.6 4.8 0.00 0.00 0.00 54 1017.4
20260901165228 25 210 3.2 4.8 0.00 0.00 0.00 57 1017.1
20260901164725 25 244 4.8 6.4 0.00 0.00 0.00 56 1017.4
20260901164220 26 319 3.2 4.8 0.00 0.00 0.00 53 1017.4
20260901163716 25 293 1.6 3.2 0.00 0.00 0.00 55 1017.2
20260901163214 25 269 1.6 4.8 0.00 0.00 0.00 55 1017.2
20260901162710 25 245 3.2 3.2 0.00 0.00 0.00 55 1017.1
20260901162209 25 249 3.2 4.8 0.00 0.00 0.00 54 1017.1
20260901161708 25 315 3.2 4.8 0.00 0.00 0.00 56 1017.2
20260901161204 25 257 3.2 9.7 0.00 0.00 0.00 53 1017.0
20260901160700 25 269 3.2 4.8 0.00 0.00 0.00 55 1017.1
20260901160155 24 340 3.2 4.8 0.00 0.00 0.00 55 1016.9
20260901155654 25 343 3.2 6.4 0.00 0.00 0.00 55 1017.0
20260901155149 25 318 4.8 6.4 0.00 0.00 0.00 56 1017.0
20260901154644 25 283 3.2 6.4 0.00 0.00 0.00 57 1017.2
20260901154138 24 259 4.8 6.4 0.00 0.00 0.00 55 1017.1
20260901153633 25 356 3.2 4.8 0.00 0.00 0.00 57 1017.1
20260901153127 24 359 1.6 9.7 0.00 0.00 0.00 59 1017.0
20260901152623 24 76 1.6 3.2 0.00 0.00 0.00 63 1017.0
20260901152121 25 37 4.8 6.4 0.00 0.00 0.00 59 1017.0
20260901151617 24 288 3.2 6.4 0.00 0.00 0.00 58 1017.1
20260901151116 24 314 3.2 6.4 0.00 0.00 0.00 62 1017.2
20260901150615 23 245 1.6 3.2 0.00 0.00 0.00 67 1017.2
20260901150113 23 226 0.0 3.2 0.00 0.00 0.00 70 1017.2
20260901145607 22 145 0.0 1.6 0.00 0.00 0.00 73 1017.5
20260901145106 22 241 1.6 3.2 0.00 0.00 0.00 70 1017.2
20260901144602 22 77 1.6 3.2 0.00 0.00 0.00 72 1017.2
20260901144057 22 332 1.6 4.8 0.00 0.00 0.00 72 1017.5
20260901143552 22 232 0.0 3.2 0.00 0.00 0.00 74 1017.6
20260901143049 22 319 1.6 4.8 0.00 0.00 0.00 71 1017.0
20260901142544 22 30 3.2 3.2 0.00 0.00 0.00 72 1017.2
20260901142043 22 159 0.0 3.2 0.00 0.00 0.00 74 1017.1
20260901141538 21 219 1.6 1.6 0.00 0.00 0.00 75 1017.5
20260901141033 21 214 0.0 3.2 0.00 0.00 0.00 77 1017.2
20260901140532 21 196 0.0 1.6 0.00 0.00 0.00 79 1017.2
20260901140027 21 179 0.0 0.0 0.00 0.00 0.00 76 1017.2
20260901135525 20 189 0.0 0.0 0.00 0.00 0.00 77 1017.4
20260901135021 20 191 0.0 1.6 0.00 0.00 0.00 82 1017.2
20260901134517 19 225 1.6 3.2 0.00 0.00 0.00 83 1017.5
20260901134012 19 216 0.0 1.6 0.00 0.00 0.00 83 1017.4
20260901133510 19 263 1.6 3.2 0.00 0.00 0.00 84 1017.2
20260901133010 18 194 0.0 1.6 0.00 0.00 0.00 87 1017.6
20260901132509 18 228 1.6 1.6 0.00 0.00 0.00 88 1017.4
20260901132009 18 230 1.6 3.2 0.00 0.00 0.00 89 1017.2
20260901131503 18 267 3.2 3.2 0.00 0.00 0.00 88 1017.2
20260901130958 18 193 3.2 4.8 0.00 0.00 0.00 88 1017.1
20260901130453 18 240 1.6 3.2 0.00 0.00 0.00 88 1017.0
20260901125950 18 268 3.2 3.2 0.00 0.00 0.00 88 1016.9
20260901125450 17 233 1.6 3.2 0.00 0.00 0.00 89 1016.9
20260901124945 17 259 3.2 4.8 0.00 0.00 0.00 90 1016.9
20260901124440 16 195 1.6 3.2 0.00 0.00 0.00 96 1016.7
20260901123935 16 227 1.6 1.6 0.00 0.00 0.00 99 1016.7
20260901123430 15 213 0.0 0.0 0.00 0.00 0.00 99 1016.6
20260901122928 15 208 0.0 0.0 0.00 0.00 0.00 99 1016.7
20260901122428 15 203 0.0 0.0 0.00 0.00 0.00 99 1016.6
20260901121927 14 203 0.0 0.0 0.00 0.00 0.00 99 1016.5
20260901121422 14 219 0.0 0.0 0.00 0.00 0.00 99 1016.6
20260901120917 14 219 0.0 0.0 0.00 0.00 0.00 99 1016.5
20260901120417 14 220 0.0 0.0 0.00 0.00 0.00 99 1016.3
20260901115913 14 222 0.0 0.0 0.00 0.00 0.00 99 1016.4
20260901115412 15 232 0.0 0.0 0.00 0.00 0.00 99 1016.4
20260901114911 14 231 0.0 0.0 0.00 0.00 0.00 99 1016.4
20260901114406 13 212 0.0 0.0 0.00 0.00 0.00 99 1016.6
20260901113904 14 211 0.0 0.0 0.00 0.00 0.00 99 1016.4